Location: Newark
(31.8769°N, 91.1411°W)
Time: 16:03:57
(UTC+00:00)

N. Korean satellite - Pass Details

Date: 25 January 2020
Orbit: 456 x 505 km, 97.2° (Epoch: 22 February)

Event Time Altitude Azimuth Distance (km) Brightness Sun altitude
Rises 12:03:06 0° 4° (N) 2,542 10.1 -12.7°
Reaches altitude 10° 12:05:12 10° 359° (N) 1,667 9.1 -12.3°
Maximum altitude 12:08:40 49° 284° (WNW) 638 6.7 -11.6°
Drops below altitude 10° 12:12:10 10° 209° (SSW) 1,683 9.2 -10.9°
Sets 12:14:17 0° 203° (SSW) 2,568 10.2 -10.4°
